CAPE
0 0 3 81 13 5 0 0 0 0 0 0 0 0 0 0 0 0 0 1 0 0 0 0 0 0 0 0 0 0 19 7 0 0 0 0 0 2 0 65 807 497 849 1780 2131 1937 1927 1863 2038 1951 1644 1493 1565 1397 1512 1418 1458 1532 1587 1847 1796 1786 1630 1272 1065 969 776 962 949 1046 1229 1008 733 800 820 1164 1021 785 893 884 661 827 856 593 584 667
0 0 0 3 46 0 0 0 0 0 0 0 0 0 0 0 0 0 1 1 0 0 0 0 0 0 0 0 0 3 4 6 0 0 0 0 14 100 168 315 279 985 1748 2272 2102 1984 2128 1934 1934 1820 1638 1654 1429 1382 1390 1432 1494 1395 1443 1561 1591 1524 1382 1497 1419 1603 1532 1201 1130 1252 896 845 571 412 647 617 735 950 841 795 652 508 439 653 659 575
0 1 12 1 0 0 0 0 0 0 0 0 0 0 1 0 0 0 1 0 0 0 0 0 0 0 0 0 1 7 6 9 0 198 201 404 332 704 522 444 865 1493 2071 2127 2038 2227 1954 1893 1713 1878 1751 1649 1450 1353 1418 1434 1469 1511 1446 1490 1485 1375 1364 1530 1786 1472 1629 1601 1294 1482 960 1028 784 1182 1057 751 843 898 614 601 256 146 152 230 320 459
2 18 20 0 0 0 0 0 0 0 0 35 4 3 0 0 21 30 16 5 23 15 2 1 0 0 0 1 4 161 177 92 17 103 179 312 477 451 551 603 507 470 973 1228 1632 1944 2021 1863 2110 2185 1767 1691 1709 1476 1397 1550 1551 1534 1496 1433 1490 1426 1551 1739 1762 1577 1682 1574 1322 1505 1079 1206 1126 1064 884 571 362 89 61 16 87 58 22 19 59 201
0 4 0 0 0 0 0 0 0 0 0 14 25 9 23 27 13 12 1 0 4 53 7 0 0 0 7 11 5 26 310 327 200 212 256 338 415 401 534 902 860 528 480 508 1120 1710 2088 1905 1971 2055 1892 1824 1742 1553 1491 1669 1643 1482 1575 1526 1501 1497 1802 1774 1832 1858 1836 1726 1591 1664 1384 1243 744 520 451 544 599 425 265 247 195 148 89 107 129 182
20 6 0 6 12 3 0 0 0 0 8 14 47 5 1 11 40 17 4 10 0 0 0 0 0 0 0 14 275 257 338 310 190 223 260 275 449 545 539 619 362 525 674 870 479 638 1331 1960 2056 2121 2038 2035 1777 1726 1835 1666 1771 1673 1720 1379 1636 1443 1858 1784 1778 2004 2060 1923 1958 1602 1416 1042 601 892 1018 1184 305 39 283 52 226 96 44 251 398 240
0 1 4 1 1 0 0 0 14 1 40 14 29 14 19 14 2 4 4 0 30 24 260 41 1 0 281 200 249 420 320 210 176 211 279 288 286 304 382 317 313 300 643 874 622 868 1140 1362 1768 1849 2149 2149 1687 1696 1978 1828 1896 1716 1862 1544 1725 1533 1686 1775 1802 2013 2059 1872 1742 1486 1085 724 918 1088 1166 933 638 719 362 411 437 303 274 117 371 283
19 1 0 0 0 0 0 0 0 0 0 0 66 20 25 12 16 17 28 4 1 1 25 7 10 0 240 148 365 130 173 145 163 203 200 153 150 218 302 279 209 205 112 636 442 714 1077 1253 1669 1992 1686 2171 1791 1912 1992 2052 1959 1885 1929 1536 1791 1484 1673 1623 1697 1907 2019 1639 1687 1493 1182 1086 1398 1255 1324 916 547 505 515 510 292 522 537 240 294 469
0 0 0 0 0 0 0 0 0 0 0 0 8 11 21 34 48 32 36 15 28 14 4 0 15 0 217 258 127 176 124 185 154 123 160 135 107 172 188 179 203 267 320 493 846 796 874 1062 1346 1776 1337 1209 794 1016 1694 2080 2091 1964 1976 1562 1817 1533 1714 1702 1788 1826 1527 1759 1767 1515 1585 1674 1550 1603 850 463 460 559 508 524 563 518 544 585 355 179
0 0 0 0 0 0 0 0 0 0 0 1 0 0 0 9 35 12 14 23 32 26 38 19 15 160 48 319 240 62 67 103 78 71 70 100 105 71 188 147 129 169 265 539 998 921 726 870 746 927 1065 1085 732 557 946 1412 2192 2052 1984 1573 1755 1661 1670 1762 1857 1779 1505 1743 1802 1624 1827 1588 1648 901 626 356 488 646 784 700 697 330 366 322 457 335
0 0 0 0 0 0 0 0 0 3 0 0 0 16 12 14 10 36 73 29 5 0 32 45 27 102 46 141 266 160 15 115 56 66 48 90 88 66 96 80 128 185 307 496 520 827 878 957 745 1207 1101 1094 747 648 788 1010 1399 1757 1882 1896 1563 1892 1679 1822 1896 1555 1679 1768 1770 1725 1794 1536 1429 690 522 603 547 762 701 636 390 466 516 299 420 372
0 0 0 0 0 0 0 0 0 0 0 0 0 5 0 62 64 221 61 80 24 18 30 210 164 2 55 68 90 90 83 66 48 55 30 107 110 115 109 82 85 124 189 232 263 740 929 982 1225 1533 1060 932 540 574 739 869 1065 789 1393 1632 1775 1813 1836 1849 1875 1642 1811 1818 1832 1828 1903 1562 1327 708 509 682 538 503 516 510 500 734 644 616 388 414
1 0 0 0 0 0 0 0 0 0 0 0 34 22 0 9 2 36 27 6 52 34 58 14 32 276 168 42 73 123 113 49 42 16 112 108 88 79 51 69 80 61 100 104 143 159 382 614 1172 1141 1290 1182 961 317 628 712 688 479 518 547 636 1040 1703 1790 1734 1709 1985 1975 1835 1918 1894 1661 1451 852 767 750 644 528 707 593 564 560 516 370 407 354
0 0 0 0 0 0 0 0 0 0 0 1 6 10 12 12 21 4 8 18 35 34 30 21 23 196 118 60 86 76 65 40 82 17 12 37 40 56 22 25 32 45 63 69 119 157 260 452 1087 1251 862 618 813 841 803 739 633 543 309 520 582 528 639 967 1256 1696 1791 1744 1753 1742 1748 1703 1262 1064 981 1036 626 712 693 569 480 372 448 362 459 406
0 2 0 0 0 0 0 0 0 0 2 0 2 22 33 33 60 28 54 38 49 180 117 15 17 59 161 16 16 116 81 68 30 24 14 10 4 7 13 6 11 11 71 95 103 95 240 533 922 995 836 782 841 1088 1225 1038 726 569 497 369 591 491 521 633 609 890 1479 1474 1635 1625 1600 1604 1199 912 970 1224 984 692 568 456 414 491 502 593 437 336
0 0 0 0 0 0 0 0 0 0 0 3 0 0 0 10 1 63 70 54 65 86 22 112 18 27 21 92 80 343 80 35 36 16 5 4 28 19 53 46 27 18 72 80 80 111 240 471 659 1192 1234 1136 999 1001 882 811 773 613 552 690 674 827 800 686 802 964 1123 614 540 1413 1481 1545 1163 913 805 1172 1123 968 608 502 431 751 628 609 473 285
0 2 0 0 0 0 0 0 0 0 1 0 4 1 1 0 1 9 3 65 85 3 29 28 26 52 1 457 47 1 4 18 1 0 2 25 17 28 36 42 39 10 74 9 96 78 164 176 530 397 1092 1330 1313 1101 1115 897 1015 837 621 580 614 829 748 708 713 897 706 450 407 542 667 615 832 838 751 971 1019 716 738 669 658 726 433 395 370 86
0 0 0 0 0 0 0 0 0 0 0 1 0 0 0 1 4 0 10 0 20 28 16 2 69 43 40 24 2 0 0 0 0 0 1 27 21 6 23 62 52 92 115 118 93 105 125 164 220 246 415 1000 1265 1188 1246 1050 901 951 764 679 815 945 793 558 807 830 788 573 405 477 631 432 572 661 443 745 743 650 703 790 914 627 586 326 168 27
0 0 0 0 0 0 0 0 0 0 0 0 0 0 0 0 0 24 9 0 1 11 1 12 12 3 18 9 12 0 1 0 0 0 3 20 63 61 47 14 62 84 110 95 81 111 121 205 290 350 207 648 1080 1159 946 993 1313 1216 1164 1136 1030 872 842 845 893 800 616 677 562 425 393 376 380 428 409 562 636 618 641 656 701 504 420 230 61 19
0 0 0 0 0 0 0 0 0 0 0 0 0 0 0 1 22 3 11 0 22 11 0 28 1 17 27 10 13 10 0 2 1 7 2 0 21 50 7 23 44 32 66 52 75 90 77 106 116 176 264 192 399 398 552 838 929 756 881 826 962 995 836 664 577 722 681 567 544 272 550 344 370 332 164 332 600 683 636 486 531 484 310 278 16 1
0 0 0 1 0 0 0 0 0 0 0 0 0 0 0 0 0 0 0 2 0 0 7 4 27 10 19 32 5 1 2 4 20 29 56 68 40 16 3 2 16 48 30 32 17 23 50 23 76 59 84 102 271 259 376 355 580 775 863 778 668 1146 1052 765 520 538 604 625 582 647 605 425 244 204 115 183 477 617 533 457 412 400 256 178 34 0
0 0 0 1 0 0 0 0 0 0 0 0 0 0 0 0 0 0 18 0 1 0 0 0 1 18 4 8 18 2 3 9 31 55 96 97 88 50 5 22 6 5 16 42 12 29 22 40 48 4 3 51 172 258 399 847 506 442 488 687 458 643 763 772 620 548 486 535 485 422 454 20 4 37 61 202 497 614 493 488 547 528 267 137 30 0
0 0 0 0 4 0 0 0 0 0 0 0 0 0 0 3 0 4 2 0 0 0 1 2 0 5 4 5 0 0 0 4 12 40 78 100 118 116 37 13 7 6 0 3 12 18 10 7 23 6 7 7 28 198 598 535 436 590 540 709 492 535 615 620 746 609 501 490 414 308 246 30 193 74 10 156 384 386 395 408 541 485 426 173 125 1
0 6 0 4 1 0 0 0 0 0 0 0 0 0 0 0 0 0 1 6 1 1 0 0 23 2 2 2 1 1 2 1 1 8 34 42 23 36 23 1 9 3 6 7 0 11 2 0 5 0 0 6 0 30 108 286 384 394 477 429 340 321 475 501 354 536 502 410 279 146 208 284 58 145 200 56 65 85 175 328 459 323 283 138 171 18
0 0 0 0 0 5 2 0 4 0 0 0 0 0 0 0 1 3 6 12 4 2 4 0 13 4 0 5 1 2 7 3 1 0 0 1 2 1 2 0 0 0 1 2 4 23 13 0 0 0 1 5 0 4 78 26 46 364 484 418 393 390 329 280 412 382 573 412 220 352 307 100 78 37 234 252 222 138 181 193 270 276 126 145 222 79
0 4 0 0 0 0 0 1 0 0 0 0 7 0 1 0 2 0 0 1 1 3 4 2 4 1 0 2 0 0 1 1 2 5 1 0 0 0 0 0 0 0 0 0 0 2 9 0 0 0 0 0 4 17 14 20 25 18 104 668 658 443 278 289 243 364 451 473 278 339 392 410 123 80 97 132 208 144 178 122 97 164 154 58 111 130
0 0 4 0 0 0 0 0 1 0 0 0 0 0 0 2 1 7 2 1 1 2 3 1 0 1 0 1 2 0 6 3 6 4 0 0 0 0 0 0 0 0 0 1 0 0 0 1 2 2 0 2 33 14 20 92 4 10 33 208 383 558 492 387 296 202 264 310 255 194 231 319 202 50 28 17 4 34 156 319 174 148 76 72 76 69
0 7 1 0 0 0 0 0 0 0 0 0 0 0 0 2 3 4 2 1 3 0 9 2 1 0 4 1 3 1 2 0 0 1 0 1 0 0 0 0 0 0 0 1 0 0 0 2 6 15 11 28 8 21 17 7 23 43 83 134 116 364 592 652 491 327 97 115 134 119 168 203 297 239 60 29 25 20 64 140 237 202 165 99 107 88
0 1 0 0 0 0 0 0 0 0 0 0 0 0 0 0 1 3 1 3 6 1 3 0 1 2 0 1 0 2 3 1 6 0 0 0 0 0 0 4 0 0 0 0 0 0 0 0 0 6 18 7 5 24 10 3 2 30 133 41 80 114 220 812 864 718 482 303 137 80 92 239 254 108 14 9 1 7 8 81 216 193 153 136 96 64
0 0 0 0 0 0 0 0 0 0 0 0 0 2 0 0 0 1 5 4 7 5 2 5 0 4 7 1 3 3 0 2 2 0 9 1 0 1 8 9 2 0 1 1 0 0 2 0 1 9 53 59 2 4 1 37 13 0 18 141 169 142 172 440 954 988 834 603 462 234 173 237 307 167 0 3 6 7 6 18 169 208 96 194 120 78
0 0 0 0 0 0 0 0 0 0 0 0 0 0 1 0 0 2 4 0 2 0 1 2 4 4 6 0 0 0 0 0 2 3 5 0 0 5 13 3 2 0 0 0 0 0 0 0 0 2 11 24 19 36 4 36 32 234 34 42 99 159 72 110 476 545 980 896 769 596 333 254 177 193 108 8 2 2 0 2 4 98 158 172 109 53
0 0 0 0 0 2 0 4 0 0 0 0 0 0 0 0 0 2 0 2 0 2 3 0 1 3 1 2 4 0 1 2 1 4 2 0 0 2 0 2 1 0 0 0 0 0 0 0 0 3 25 28 30 37 54 78 24 94 42 5 71 259 102 157 199 553 568 501 792 769 627 385 287 196 116 74 31 8 8 2 0 3 43 88 54 47
0 0 0 0 0 0 1 13 0 0 0 1 2 0 0 1 0 0 0 1 1 0 6 0 5 6 5 3 2 2 0 1 2 6 1 0 0 0 2 4 0 0 0 0 0 0 0 1 0 10 41 28 29 38 77 40 30 87 107 46 69 124 498 248 82 2 84 40 203 630 793 567 416 281 349 261 246 29 17 8 5 1 36 73 41 24
0 0 0 0 0 0 6 0 0 0 0 4 1 0 0 0 0 0 0 0 1 2 0 2 5 6 5 3 1 3 2 3 1 14 2 2 0 0 3 0 0 0 1 1 15 8 0 4 0 6 14 20 12 17 16 77 91 119 166 82 185 94 121 331 352 350 75 31 6 12 372 797 610 468 361 385 374 277 181 68 8 3 12 34 13 0
0 0 0 0 0 0 0 0 0 0 6 15 1 0 0 0 0 0 0 0 0 0 2 5 3 6 5 1 4 3 3 4 5 5 14 1 1 0 0 0 2 0 0 0 6 8 6 18 28 28 33 14 8 38 4 2 10 38 22 110 78 140 87 171 407 336 455 318 121 145 0 152 659 398 459 491 424 341 305 255 132 40 24 21 6 6
0 0 0 0 0 0 0 0 0 0 14 4 0 0 0 0 0 0 0 0 6 2 4 2 3 7 4 1 4 2 0 2 2 15 5 4 1 0 0 0 0 0 0 0 0 23 15 2 30 35 42 40 5 2 0 0 2 2 3 8 32 121 93 59 176 33 36 174 414 150 179 33 88 292 474 539 380 463 336 248 204 181 133 38 10 1
0 0 0 0 0 0 0 0 0 0 20 1 1 0 0 0 0 0 0 0 0 0 0 4 6 5 2 5 0 4 2 2 3 3 6 3 5 2 0 0 0 0 0 0 0 0 4 16 11 24 20 5 2 0 3 1 0 0 0 0 1 3 0 62 140 185 121 40 9 302 330 132 94 96 105 183 463 393 310 301 196 110 17 0 0 1
0 0 0 0 0 0 0 0 0 0 0 7 2 2 0 0 0 0 0 0 0 0 0 0 0 2 6 2 6 6 2 0 0 16 18 12 1 0 0 0 0 0 0 0 0 1 2 16 14 0 8 3 1 2 0 0 0 0 0 0 1 0 0 0 23 13 122 258 286 186 134 532 216 73 128 302 401 379 317 280 256 153 7 0 0 0
0 0 0 0 0 0 0 0 0 0 1 9 20 0 0 0 0 0 0 0 2 1 1 1 4 1 0 1 1 0 0 2 7 0 7 32 19 4 10 12 6 7 0 4 9 2 0 6 0 0 0 0 0 0 0 0 0 0 0 0 0 0 0 0 0 0 2 8 15 227 199 152 66 110 21 8 92 282 366 296 233 104 12 0 0 0
0 0 0 0 0 0 0 0 1 0 0 3 7 1 0 0 0 0 1 1 1 1 1 2 2 1 0 0 0 0 4 0 0 11 10 15 9 34 28 10 24 22 17 27 36 3 0 0 0 0 0 0 0 0 0 0 0 0 0 0 0 0 0 0 0 0 0 1 3 143 292 312 214 70 160 78 42 14 291 479 250 196 67 17 0 0
50 9 1 0 0 0 0 0 0 14 1 11 3 0 0 0 0 0 2 2 0 3 0 1 4 3 4 4 4 3 1 0 0 4 39 45 23 47 29 23 12 13 25 37 27 8 0 0 0 0 0 0 0 0 0 0 0 0 0 0 0 0 0 0 3 3 0 2 2 0 0 127 609 529 290 105 21 56 162 572 511 425 247 86 17 2
0 0 0 0 0 0 0 0 0 0 4 5 0 0 0 0 0 0 0 0 0 0 0 0 0 1 1 0 0 0 5 8 12 12 32 45 41 22 34 8 2 10 0 7 27 34 2 0 0 0 0 0 0 0 0 0 0 0 2 0 0 0 0 0 0 1 2 2 1 0 0 0 64 1072 485 21 1 12 334 559 518 425 457 248 149 92
0 0 0 0 0 0 1 0 0 0 0 1 0 0 0 0 1 0 0 0 4 6 8 2 4 1 4 0 0 0 9 17 28 5 15 36 21 9 5 4 2 0 1 16 9 2 0 0 0 0 0 0 0 0 0 0 0 0 0 0 0 0 0 0 0 0 4 3 0 0 0 4 14 49 404 684 663 87 50 336 259 285 253 248 225 150
0 0 0 0 0 0 0 0 7 0 0 0 0 0 0 0 0 0 0 1 2 0 1 4 1 4 0 0 0 0 0 0 0 2 16 4 6 9 1 0 1 2 0 3 2 5 5 0 0 0 0 0 0 0 0 0 0 0 0 0 0 2 0 0 0 0 9 16 8 2 2 0 0 10 22 96 426 402 163 112 64 91 102 141 129 100
0 0 12 0 0 0 0 0 0 0 0 1 0 0 0 0 0 0 0 0 0 1 1 3 4 0 0 0 0 0 0 0 18 62 12 16 4 6 8 5 13 6 11 20 13 18 4 0 1 1 0 6 13 6 1 1 4 4 9 9 0 0 0 0 0 0 15 19 8 2 3 3 0 1 8 14 152 483 687 74 46 85 103 24 50 25
0 0 0 0 0 0 0 0 0 0 0 0 4 1 0 0 4 6 1 0 2 1 1 0 0 0 1 0 0 0 1 30 20 13 13 8 9 9 31 17 18 15 7 2 3 0 1 0 0 0 3 9 12 18 14 13 12 16 21 10 3 2 0 0 0 2 16 17 14 13 7 6 5 2 6 14 47 415 296 488 203 20 2 52 49 34
0 0 0 0 0 0 0 0 0 2 5 0 0 0 0 0 0 0 0 6 1 1 0 0 0 0 0 0 0 22 18 30 16 13 18 22 26 12 3 11 14 3 5 1 0 1 0 0 0 0 7 10 9 8 7 10 12 13 12 9 3 0 0 0 6 17 18 16 11 6 3 8 5 6 4 3 11 33 48 110 510 151 64 50 49 68
3 0 0 0 0 0 0 0 0 0 0 5 19 1 0 2 2 1 9 1 0 0 0 2 1 1 2 0 18 13 10 3 3 11 19 34 42 14 0 0 0 0 0 0 0 0 0 1 2 5 7 6 5 3 5 9 12 14 21 10 0 3 6 18 35 23 9 6 2 1 2 1 0 10 15 12 15 9 11 38 124 176 157 60 70 121
2 0 0 0 0 0 0 1 1 0 1 1 4 0 4 4 2 7 3 5 10 0 0 1 4 8 3 1 0 0 0 0 2 14 24 29 4 0 0 0 0 0 0 0 0 0 0 2 6 6 9 9 7 8 5 7 11 14 18 14 11 12 11 27 13 9 6 2 0 0 0 3 7 3 1 0 0 1 8 42 160 409 348 158 196 85
0 0 0 0 0 0 0 2 0 0 0 1 0 0 0 0 0 0 4 4 0 2 4 1 2 0 0 0 0 0 0 0 2 6 1 0 0 1 0 0 0 0 0 0 0 0 0 1 8 16 16 9 11 8 6 11 12 3 3 2 12 17 13 14 6 6 1 0 0 1 2 7 8 6 1 0 0 0 0 0 0 59 64 202 184 12
0 0 0 0 0 0 1 0 0 0 0 0 0 0 0 0 0 2 1 2 3 1 1 1 0 0 0 0 0 0 1 0 0 0 2 1 2 4 0 0 0 0 0 0 0 0 0 9 18 17 2 13 8 8 10 14 13 5 4 12 3 15 10 9 9 3 0 0 0 0 0 3 0 5 4 2 3 3 5 0 0 0 0 0 0 77
Wind_Speed
nan nan nan nan nan nan nan nan nan nan nan nan nan nan nan nan nan nan nan nan nan nan nan nan nan nan nan nan nan nan nan nan nan nan nan nan nan nan nan nan 34 36 34 29 29 28 25 23 24 24 22 21 21 21 21 20 21 22 22 23 23 23 24 23 23 23 23 23 24 23 22 23 21 22 21 21 21 22 19 18 20 19 18 16 14 15
nan nan nan nan nan nan nan nan nan nan nan nan nan nan nan nan nan nan nan nan nan nan nan nan nan nan nan nan nan nan nan nan nan nan nan nan nan 21 25 31 27 42 40 35 28 28 27 24 24 24 23 22 23 21 21 20 21 20 23 22 23 23 23 23 24 25 24 24 24 23 24 23 24 24 23 24 23 22 21 20 19 18 16 18 18 16
nan nan nan nan nan nan nan nan nan nan nan nan nan nan nan nan nan nan nan nan nan nan nan nan nan nan nan nan nan nan nan nan nan 32 30 33 33 34 33 42 48 41 39 35 31 28 25 25 23 23 25 23 23 23 21 21 21 21 23 22 23 23 23 23 25 26 25 24 26 23 24 24 25 24 24 25 24 23 23 20 21 20 16 14 18 18
nan nan nan nan nan nan nan nan nan nan nan nan nan nan nan nan nan nan nan nan nan nan nan nan nan nan nan nan nan 36 44 nan nan 34 33 33 35 37 39 43 49 43 34 30 29 27 24 23 23 24 23 22 22 21 21 21 22 22 23 23 23 23 22 23 25 26 25 26 26 26 26 26 26 27 26 25 24 nan nan nan nan nan nan nan nan 14
nan nan nan nan nan nan nan nan nan nan nan nan nan nan nan nan nan nan nan nan nan nan nan nan nan nan nan nan nan nan 46 49 44 38 34 32 32 36 40 44 48 44 37 27 27 28 25 21 20 22 21 22 22 21 22 23 23 22 24 25 24 23 22 24 25 25 26 27 27 29 27 28 29 28 26 25 25 24 24 24 23 22 nan 19 19 16
nan nan nan nan nan nan nan nan nan nan nan nan nan nan nan nan nan nan nan nan nan nan nan nan nan nan nan nan 29 36 43 44 44 41 35 32 32 37 39 40 46 44 39 29 26 25 19 17 15 19 21 23 22 22 23 24 23 23 24 26 24 23 23 24 25 26 28 27 28 28 29 29 28 27 26 26 27 nan 24 nan 24 nan nan 20 19 19
nan nan nan nan nan nan nan nan nan nan nan nan nan nan nan nan nan nan nan nan nan nan 24 nan nan nan 31 38 36 42 43 40 42 41 39 38 39 39 38 37 42 43 36 27 25 24 20 22 16 16 19 22 25 22 24 24 24 21 23 24 24 23 23 25 25 28 27 27 27 27 27 28 27 28 25 27 26 27 28 28 26 25 24 23 20 19
nan nan nan nan nan nan nan nan nan nan nan nan nan nan nan nan nan nan nan nan nan nan nan nan nan nan 27 33 38 43 43 42 41 39 39 38 39 40 39 39 40 43 39 34 32 29 22 23 20 16 20 23 26 27 24 22 22 20 21 22 23 24 24 27 26 29 26 27 28 27 25 27 26 27 29 29 27 28 28 27 27 26 25 25 22 20
nan nan nan nan nan nan nan nan nan nan nan nan nan nan nan nan nan nan nan nan nan nan nan nan nan nan 28 30 37 40 43 42 41 40 37 34 33 36 36 36 40 46 54 50 43 39 36 30 23 27 23 36 34 33 23 20 18 18 18 21 22 24 24 27 27 28 25 25 27 26 24 27 25 30 31 28 27 27 27 26 26 26 26 25 24 22
nan nan nan nan nan nan nan nan nan nan nan nan nan nan nan nan nan nan nan nan nan nan nan nan nan 25 nan 30 31 nan nan 37 nan nan nan 34 34 nan 33 36 41 45 49 48 42 40 39 34 35 36 39 31 26 28 25 17 17 17 20 22 22 25 25 27 27 27 26 25 26 24 22 24 26 31 29 27 27 26 25 24 25 26 26 26 24 23
nan nan nan nan nan nan nan nan nan nan nan nan nan nan nan nan nan nan nan nan nan nan nan nan nan 32 nan 32 32 32 nan 33 nan nan nan nan nan nan nan nan 37 42 44 46 44 40 36 35 32 34 32 27 21 25 27 22 17 24 24 25 24 26 26 28 27 26 26 25 25 23 22 21 25 28 28 27 26 26 24 24 24 24 25 25 26 25
nan nan nan nan nan nan nan nan nan nan nan nan nan nan nan nan nan 6 nan nan nan nan nan 25 33 nan nan nan nan nan nan nan nan nan nan 35 35 34 31 nan nan 33 38 42 43 40 36 33 31 33 35 32 23 24 29 29 33 32 28 26 27 26 26 28 28 26 26 25 25 24 22 20 24 25 26 26 26 25 24 25 24 23 23 24 26 25
nan nan nan nan nan nan nan nan nan nan nan nan nan nan nan nan nan nan nan nan nan nan nan nan nan 31 32 nan nan 31 34 nan nan nan 34 34 nan nan nan nan nan nan nan 34 40 40 39 39 36 33 36 36 31 32 38 38 38 37 34 32 26 25 26 28 27 27 26 26 27 26 25 22 24 23 24 26 25 25 25 25 24 24 23 24 24 24
nan nan nan nan nan nan nan nan nan nan nan nan nan nan nan nan nan nan nan nan nan nan nan nan nan 27 25 nan nan nan nan nan nan nan nan nan nan nan nan nan nan nan nan nan 36 40 41 40 39 38 39 35 33 37 36 29 29 33 31 32 32 29 26 26 26 27 26 27 29 29 27 26 26 24 24 25 25 25 25 26 25 25 24 24 23 24
nan nan nan nan nan nan nan nan nan nan nan nan nan nan nan nan nan nan nan nan nan 5 6 nan nan nan 21 nan nan 15 nan nan nan nan nan nan nan nan nan nan nan nan nan nan 35 nan 41 40 43 40 38 34 36 40 38 34 36 33 32 31 33 32 35 36 31 25 28 31 31 31 29 29 29 27 25 25 26 26 27 26 26 25 26 24 25 24
nan nan nan nan nan nan nan nan nan nan nan nan nan nan nan nan nan nan nan nan nan nan nan 6 nan nan nan nan nan 12 nan nan nan nan nan nan nan nan nan nan nan nan nan nan nan 36 40 41 42 42 42 41 40 41 40 38 38 38 37 40 37 36 38 37 36 34 39 41 31 32 33 30 30 29 28 26 27 27 28 27 26 25 26 26 26 26
nan nan nan nan nan nan nan nan nan nan nan nan nan nan nan nan nan nan nan nan nan nan nan nan nan nan nan 15 nan nan nan nan nan nan nan nan nan nan nan nan nan nan nan nan nan nan 37 40 42 42 44 45 43 44 44 42 42 43 43 40 39 40 41 42 43 45 46 41 38 36 31 31 30 30 29 28 28 28 28 28 26 26 27 26 27 nan
nan nan nan nan nan nan nan nan nan nan nan nan nan nan nan nan nan nan nan nan nan nan nan nan nan nan nan nan nan nan nan nan nan nan nan nan nan nan nan nan nan nan 32 34 nan 37 38 39 40 43 43 45 47 46 47 45 44 44 44 42 41 41 41 42 44 47 45 40 37 37 37 33 30 35 32 30 29 29 30 29 28 29 27 27 28 nan
nan nan nan nan nan nan nan nan nan nan nan nan nan nan nan nan nan nan nan nan nan nan nan nan nan nan nan nan nan nan nan nan nan nan nan nan nan nan nan nan nan nan 28 nan nan 38 38 39 39 41 42 44 44 44 46 47 45 45 44 43 42 40 41 42 45 49 48 43 37 38 38 36 35 38 35 33 33 32 32 31 30 29 28 27 nan nan
nan nan nan nan nan nan nan nan nan nan nan nan nan nan nan nan nan nan nan nan nan nan nan nan nan nan nan nan nan nan nan nan nan nan nan nan nan nan nan nan nan nan nan nan nan nan nan 37 38 39 41 46 42 45 47 46 45 43 44 41 43 43 39 40 41 44 45 43 38 37 39 36 35 36 34 35 36 35 34 33 32 30 30 28 nan nan
nan nan nan nan nan nan nan nan nan nan nan nan nan nan nan nan nan nan nan nan nan nan nan nan nan nan nan nan nan nan nan nan nan nan nan nan nan nan nan nan nan nan nan nan nan nan nan nan nan nan nan 43 46 46 45 45 42 43 42 40 41 40 36 37 37 38 39 39 37 37 37 35 33 32 33 36 39 36 34 34 35 34 32 32 nan nan
nan nan nan nan nan nan nan nan nan nan nan nan nan nan nan nan nan nan nan nan nan nan nan nan nan nan nan nan nan nan nan nan nan nan nan nan nan nan nan nan nan nan nan nan nan nan nan nan nan nan nan nan 46 48 44 41 40 40 40 40 39 36 35 36 35 35 36 35 35 35 36 nan nan nan nan 34 37 35 35 37 39 40 37 36 nan nan
nan nan nan nan nan nan nan nan nan nan nan nan nan nan nan nan nan nan nan nan nan nan nan nan nan nan nan nan nan nan nan nan nan nan nan nan 23 25 nan nan nan nan nan nan nan nan nan nan nan nan nan nan nan 45 45 44 41 39 38 38 36 34 34 33 33 33 35 34 31 34 35 nan 32 nan nan 31 35 35 35 36 38 40 40 40 37 nan
nan nan nan nan nan nan nan nan nan nan nan nan nan nan nan nan nan nan nan nan nan nan nan nan nan nan nan nan nan nan nan nan nan nan nan nan nan nan nan nan nan nan nan nan nan nan nan nan nan nan nan nan nan nan 45 43 46 41 39 35 35 31 32 32 33 33 33 37 38 34 31 33 nan 32 34 nan nan nan 34 36 39 39 39 38 37 nan
nan nan nan nan nan nan nan nan nan nan nan nan nan nan nan nan nan nan nan nan nan nan nan nan nan nan nan nan nan nan nan nan nan nan nan nan nan nan nan nan nan nan nan nan nan nan nan nan nan nan nan nan nan nan nan nan nan 41 39 37 34 35 34 33 34 34 34 35 36 37 38 nan nan nan 33 34 35 32 33 35 39 39 39 39 37 nan
nan nan nan nan nan nan nan nan nan nan nan nan nan nan nan nan nan nan nan nan nan nan nan nan nan nan nan nan nan nan nan nan nan nan nan nan nan nan nan nan nan nan nan nan nan nan nan nan nan nan nan nan nan nan nan nan nan nan 38 36 37 35 35 35 36 35 35 35 33 34 35 36 36 nan nan 34 35 37 36 37 nan 37 38 nan 39 35
nan nan nan nan nan nan nan nan nan nan nan nan nan nan nan nan nan nan nan nan nan nan nan nan nan nan nan nan nan nan nan nan nan nan nan nan nan nan nan nan nan nan nan nan nan nan nan nan nan nan nan nan nan nan nan nan nan nan nan 36 36 37 36 36 36 35 35 35 34 34 33 32 32 nan nan nan nan nan 32 35 36 33 nan nan nan nan
nan nan nan nan nan nan nan nan nan nan nan nan nan nan nan nan nan nan nan nan nan nan nan nan nan nan nan nan nan nan nan nan nan nan nan nan nan nan nan nan nan nan nan nan nan nan nan nan nan nan nan nan nan nan nan nan nan nan nan 34 36 37 37 37 36 35 nan 37 36 35 35 34 33 31 nan nan nan nan nan 24 27 29 30 nan 37 nan
nan nan nan nan nan nan nan nan nan nan nan nan nan nan nan nan nan nan nan nan nan nan nan nan nan nan nan nan nan nan nan nan nan nan nan nan nan nan nan nan nan nan nan nan nan nan nan nan nan nan nan nan nan nan nan nan nan nan 29 nan nan 34 35 35 35 35 35 37 38 nan nan 36 35 34 nan nan nan nan nan nan 22 23 24 26 nan nan
nan nan nan nan nan nan nan nan nan nan nan nan nan nan nan nan nan nan nan nan nan nan nan nan nan nan nan nan nan nan nan nan nan nan nan nan nan nan nan nan nan nan nan nan nan nan nan nan nan nan nan nan nan nan nan nan nan nan nan 31 31 29 31 35 33 32 32 33 35 36 35 36 35 34 nan nan nan nan nan nan 25 25 nan 25 25 nan
nan nan nan nan nan nan nan nan nan nan nan nan nan nan nan nan nan nan nan nan nan nan nan nan nan nan nan nan nan nan nan nan nan nan nan nan nan nan nan nan nan nan nan nan nan nan nan nan nan nan nan nan nan nan nan nan nan 30 nan nan nan 28 nan 29 29 31 30 30 30 32 32 33 35 34 34 nan nan nan nan nan nan nan 23 23 24 nan
nan nan nan nan nan nan nan nan nan nan nan nan nan nan nan nan nan nan nan nan nan nan nan nan nan nan nan nan nan nan nan nan nan nan nan nan nan nan nan nan nan nan nan nan nan nan nan nan nan nan nan nan nan nan nan nan nan nan nan nan nan 29 29 29 26 25 25 24 27 29 30 31 32 32 32 nan nan nan nan nan nan nan nan nan nan nan
nan nan nan nan nan nan nan nan nan nan nan nan nan nan nan nan nan nan nan nan nan nan nan nan nan nan nan nan nan nan nan nan nan nan nan nan nan nan nan nan nan nan nan nan nan nan nan nan nan nan nan nan nan nan nan nan nan nan 28 nan nan 30 30 29 nan nan nan nan 17 20 28 30 30 29 30 31 32 nan nan nan nan nan nan nan nan nan
nan nan nan nan nan nan nan nan nan nan nan nan nan nan nan nan nan nan nan nan nan nan nan nan nan nan nan nan nan nan nan nan nan nan nan nan nan nan nan nan nan nan nan nan nan nan nan nan nan nan nan nan nan nan nan nan nan 25 26 nan 30 nan 28 28 27 26 nan nan nan nan 13 21 25 26 28 31 31 31 30 nan nan nan nan nan nan nan
nan nan nan nan nan nan nan nan nan nan nan nan nan nan nan nan nan nan nan nan nan nan nan nan nan nan nan nan nan nan nan nan nan nan nan nan nan nan nan nan nan nan nan nan nan nan nan nan nan nan nan nan nan nan nan nan nan nan nan 26 nan 26 nan 29 27 27 28 28 20 15 nan 12 18 19 22 26 28 28 27 27 28 nan nan nan nan nan
nan nan nan nan nan nan nan nan nan nan nan nan nan nan nan nan nan nan nan nan nan nan nan nan nan nan nan nan nan nan nan nan nan nan nan nan nan nan nan nan nan nan nan nan nan nan nan nan nan nan nan nan nan nan nan nan nan nan nan nan nan 25 nan nan 29 nan nan 28 25 22 20 nan nan 18 17 19 21 24 26 28 28 29 30 nan nan nan
nan nan nan nan nan nan nan nan nan nan nan nan nan nan nan nan nan nan nan nan nan nan nan nan nan nan nan nan nan nan nan nan nan nan nan nan nan nan nan nan nan nan nan nan nan nan nan nan nan nan nan nan nan nan nan nan nan nan nan nan nan nan nan nan 26 28 29 nan nan 26 25 24 nan nan 16 14 20 23 24 25 27 27 nan nan nan nan
nan nan nan nan nan nan nan nan nan nan nan nan nan nan nan nan nan nan nan nan nan nan nan nan nan nan nan nan nan nan nan nan nan nan nan nan nan nan nan nan nan nan nan nan nan nan nan nan nan nan nan nan nan nan nan nan nan nan nan nan nan nan nan nan nan nan 24 26 27 28 29 28 27 nan 18 21 24 28 27 28 28 29 nan nan nan nan
nan nan nan nan nan nan nan nan nan nan nan nan nan nan nan nan nan nan nan nan nan nan nan nan nan nan nan nan nan nan nan nan nan nan nan nan nan nan nan nan nan nan nan nan nan nan nan nan nan nan nan nan nan nan nan nan nan nan nan nan nan nan nan nan nan nan nan nan nan 27 29 27 nan 27 nan nan nan 24 29 29 29 31 nan nan nan nan
nan nan nan nan nan nan nan nan nan nan nan nan nan nan nan nan nan nan nan nan nan nan nan nan nan nan nan nan nan nan nan nan nan nan nan nan nan nan nan nan nan nan nan nan nan nan nan nan nan nan nan nan nan nan nan nan nan nan nan nan nan nan nan nan nan nan nan nan nan 27 28 27 26 nan 27 nan nan nan 20 27 29 30 nan nan nan nan
nan nan nan nan nan nan nan nan nan nan nan nan nan nan nan nan nan nan nan nan nan nan nan nan nan nan nan nan nan nan nan nan nan nan nan nan nan nan nan nan nan nan nan nan nan nan nan nan nan nan nan nan nan nan nan nan nan nan nan nan nan nan nan nan nan nan nan nan nan nan nan 27 26 28 28 26 nan nan 17 23 27 28 30 nan nan nan
nan nan nan nan nan nan nan nan nan nan nan nan nan nan nan nan nan nan nan nan nan nan nan nan nan nan nan nan nan nan nan nan nan nan nan nan nan nan nan nan nan nan nan nan nan nan nan nan nan nan nan nan nan nan nan nan nan nan nan nan nan nan nan nan nan nan nan nan nan nan nan nan nan 26 26 nan nan nan 19 26 27 25 27 29 30 nan
nan nan nan nan nan nan nan nan nan nan nan nan nan nan nan nan nan nan nan nan nan nan nan nan nan nan nan nan nan nan nan nan nan nan nan nan nan nan nan nan nan nan nan nan nan nan nan nan nan nan nan nan nan nan nan nan nan nan nan nan nan nan nan nan nan nan nan nan nan nan nan nan nan nan 24 25 27 nan nan 24 23 25 27 26 27 30
nan nan nan nan nan nan nan nan nan nan nan nan nan nan nan nan nan nan nan nan nan nan nan nan nan nan nan nan nan nan nan nan nan nan nan nan nan nan nan nan nan nan nan nan nan nan nan nan nan nan nan nan nan nan nan nan nan nan nan nan nan nan nan nan nan nan nan nan nan nan nan nan nan nan nan nan 26 30 27 29 nan nan 24 26 28 28
nan nan nan nan nan nan nan nan nan nan nan nan nan nan nan nan nan nan nan nan nan nan nan nan nan nan nan nan nan nan nan nan nan nan nan nan nan nan nan nan nan nan nan nan nan nan nan nan nan nan nan nan nan nan nan nan nan nan nan nan nan nan nan nan nan nan nan nan nan nan nan nan nan nan nan nan 29 29 29 nan nan nan 20 nan nan nan
nan nan nan nan nan nan nan nan nan nan nan nan nan nan nan nan nan nan nan nan nan nan nan nan nan nan nan nan nan nan nan nan nan nan nan nan nan nan nan nan nan nan nan nan nan nan nan nan nan nan nan nan nan nan nan nan nan nan nan nan nan nan nan nan nan nan nan nan nan nan nan nan nan nan nan nan nan 28 28 29 31 nan nan nan nan nan
nan nan nan nan nan nan nan nan nan nan nan nan nan nan nan nan nan nan nan nan nan nan nan nan nan nan nan nan nan nan nan nan nan nan nan nan nan nan nan nan nan nan nan nan nan nan nan nan nan nan nan nan nan nan nan nan nan nan nan nan nan nan nan nan nan nan nan nan nan nan nan nan nan nan nan nan nan nan nan 29 34 36 nan nan nan nan
nan nan nan nan nan nan nan nan nan nan nan nan nan nan nan nan nan nan nan nan nan nan nan nan nan nan nan nan nan nan nan nan nan nan nan nan nan nan nan nan nan nan nan nan nan nan nan nan nan nan nan nan nan nan nan nan nan nan nan nan nan nan nan nan nan nan nan nan nan nan nan nan nan nan nan nan nan nan nan nan 41 38 37 nan nan 33
nan nan nan nan nan nan nan nan nan nan nan nan nan nan nan nan nan nan nan nan nan nan nan nan nan nan nan nan nan nan nan nan nan nan nan nan nan nan nan nan nan nan nan nan nan nan nan nan nan nan nan nan nan nan nan nan nan nan nan nan nan nan nan nan nan nan nan nan nan nan nan nan nan nan nan nan nan nan nan nan 36 37 39 37 40 nan
nan nan nan nan nan nan nan nan nan nan nan nan nan nan nan nan nan nan nan nan nan nan nan nan nan nan nan nan nan nan nan nan nan nan nan nan nan nan nan nan nan nan nan nan nan nan nan nan nan nan nan nan nan nan nan nan nan nan nan nan nan nan nan nan nan nan nan nan nan nan nan nan nan nan nan nan nan nan nan nan nan nan nan 37 37 nan
nan nan nan nan nan nan nan nan nan nan nan nan nan nan nan nan nan nan nan nan nan nan nan nan nan nan nan nan nan nan nan nan nan nan nan nan nan nan nan nan nan nan nan nan nan nan nan nan nan nan nan nan nan nan nan nan nan nan nan nan nan nan nan nan nan nan nan nan nan nan nan nan nan nan nan nan nan nan nan nan nan nan nan nan nan nan
Wind_Direction
nan nan nan nan nan nan nan nan nan nan nan nan nan nan nan nan nan nan nan nan nan nan nan nan nan nan nan nan nan nan nan nan nan nan nan nan nan nan nan nan 291 290 285 280 282 282 283 286 284 284 287 291 295 297 300 300 301 300 300 298 299 295 294 296 294 293 292 293 293 292 292 289 291 286 285 283 286 288 285 290 297 303 311 311 315 321
nan nan nan nan nan nan nan nan nan nan nan nan nan nan nan nan nan nan nan nan nan nan nan nan nan nan nan nan nan nan nan nan nan nan nan nan nan 220 236 239 246 270 272 277 274 277 279 281 286 288 289 296 300 298 299 302 300 299 297 298 294 294 297 295 295 289 288 290 291 294 295 295 291 294 295 292 290 291 293 295 295 296 301 310 315 319
nan nan nan nan nan nan nan nan nan nan nan nan nan nan nan nan nan nan nan nan nan nan nan nan nan nan nan nan nan nan nan nan nan 245 238 232 222 222 234 252 244 246 260 271 267 273 275 277 283 283 285 291 294 298 301 301 298 299 295 295 294 297 298 297 293 291 292 293 292 296 293 292 289 282 281 283 283 287 292 294 298 294 296 301 309 318
nan nan nan nan nan nan nan nan nan nan nan nan nan nan nan nan nan nan nan nan nan nan nan nan nan nan nan nan nan 236 229 nan nan 236 228 227 224 225 235 249 260 256 235 232 258 263 266 271 271 271 284 290 289 295 299 300 301 298 295 294 295 297 298 297 292 293 292 288 292 287 289 286 289 288 285 285 287 nan nan nan nan nan nan nan nan 294
nan nan nan nan nan nan nan nan nan nan nan nan nan nan nan nan nan nan nan nan nan nan nan nan nan nan nan nan nan nan 234 232 231 237 230 227 228 233 236 243 257 261 260 242 225 234 249 261 271 272 280 292 293 296 298 298 298 293 298 295 295 296 295 292 292 292 286 284 286 284 284 281 281 286 288 291 292 289 289 294 294 293 nan 293 293 294
nan nan nan nan nan nan nan nan nan nan nan nan nan nan nan nan nan nan nan nan nan nan nan nan nan nan nan nan 215 235 238 232 234 239 237 232 232 234 232 235 247 254 261 254 250 261 251 257 268 272 279 288 289 293 293 292 293 292 295 297 294 295 291 292 293 290 287 287 287 287 288 290 290 290 293 293 290 nan 298 nan 290 nan nan 284 285 286
nan nan nan nan nan nan nan nan nan nan nan nan nan nan nan nan nan nan nan nan nan nan 187 nan nan nan 226 212 211 232 237 240 239 240 240 237 238 232 230 234 240 253 250 254 256 254 253 256 260 264 273 282 287 286 284 286 287 292 292 295 296 294 290 291 294 292 293 294 291 293 292 291 293 292 292 289 292 290 288 292 293 290 289 289 284 285
nan nan nan nan nan nan nan nan nan nan nan nan nan nan nan nan nan nan nan nan nan nan nan nan nan nan 235 223 219 230 237 240 240 242 242 240 240 235 234 233 236 235 239 245 254 265 257 259 270 272 259 266 272 272 272 274 279 288 291 293 293 292 291 290 293 293 296 297 297 299 300 297 297 294 288 286 286 289 291 294 296 296 293 291 292 289
nan nan nan nan nan nan nan nan nan nan nan nan nan nan nan nan nan nan nan nan nan nan nan nan nan nan 245 227 218 231 236 235 237 236 236 240 240 246 241 239 236 244 247 242 244 251 246 239 246 264 260 246 228 230 245 261 267 279 285 290 289 290 289 289 294 294 296 294 296 300 301 299 296 290 287 286 287 289 293 298 301 297 292 290 291 290
nan nan nan nan nan nan nan nan nan nan nan nan nan nan nan nan nan nan nan nan nan nan nan nan nan 227 nan 233 231 nan nan 242 nan nan nan 238 244 nan 247 244 244 241 244 248 250 246 241 239 235 236 251 259 261 256 230 228 276 283 281 284 286 285 283 284 289 290 293 293 291 295 295 296 292 289 291 290 291 292 294 296 296 293 293 291 291 293
nan nan nan nan nan nan nan nan nan nan nan nan nan nan nan nan nan nan nan nan nan nan nan nan nan 235 nan 228 229 236 nan 252 nan nan nan nan nan nan nan nan 244 248 246 247 246 244 239 246 250 262 264 276 275 268 272 268 268 279 275 275 275 276 277 280 283 286 288 289 287 287 287 290 288 290 292 291 293 292 294 293 294 297 296 295 293 290
nan nan nan nan nan nan nan nan nan nan nan nan nan nan nan nan nan 163 nan nan nan nan nan 238 236 nan nan nan nan nan nan nan nan nan nan 257 258 254 254 nan nan 252 257 254 249 248 249 251 257 256 262 270 254 247 248 244 243 246 256 263 271 271 271 276 280 283 283 285 283 281 280 281 282 288 291 291 294 293 294 292 294 295 294 291 292 293
nan nan nan nan nan nan nan nan nan nan nan nan nan nan nan nan nan nan nan nan nan nan nan nan nan 243 245 nan nan 249 247 nan nan nan 258 259 nan nan nan nan nan nan nan 248 253 252 253 257 258 256 262 273 270 259 249 245 243 244 243 240 241 253 264 270 273 276 278 280 280 279 280 275 276 283 288 289 291 292 292 290 292 292 292 289 293 293
nan nan nan nan nan nan nan nan nan nan nan nan nan nan nan nan nan nan nan nan nan nan nan nan nan 246 253 nan nan nan nan nan nan nan nan nan nan nan nan nan nan nan nan nan 250 252 255 254 258 256 262 265 268 266 264 263 264 265 269 273 274 268 255 249 261 272 273 276 275 277 277 276 275 278 282 283 286 289 288 289 289 292 291 290 290 292
nan nan nan nan nan nan nan nan nan nan nan nan nan nan nan nan nan nan nan nan nan 228 200 nan nan nan 262 nan nan 267 nan nan nan nan nan nan nan nan nan nan nan nan nan nan 252 nan 257 256 260 266 260 260 268 272 272 273 272 268 270 273 276 280 284 281 273 267 275 277 275 275 276 276 273 274 275 275 280 285 286 286 287 291 290 289 286 288
nan nan nan nan nan nan nan nan nan nan nan nan nan nan nan nan nan nan nan nan nan nan nan 236 nan nan nan nan nan 286 nan nan nan nan nan nan nan nan nan nan nan nan nan nan nan 252 257 258 259 266 266 266 266 270 269 271 274 276 276 272 270 271 272 272 275 277 271 262 259 268 274 274 273 272 273 272 276 280 283 282 285 288 288 285 284 282
nan nan nan nan nan nan nan nan nan nan nan nan nan nan nan nan nan nan nan nan nan nan nan nan nan nan nan 273 nan nan nan nan nan nan nan nan nan nan nan nan nan nan nan nan nan nan 251 253 256 259 265 267 265 265 270 271 272 275 279 280 279 280 279 275 272 271 272 279 271 259 252 259 273 276 276 276 276 279 279 278 279 280 282 283 283 nan
nan nan nan nan nan nan nan nan nan nan nan nan nan nan nan nan nan nan nan nan nan nan nan nan nan nan nan nan nan nan nan nan nan nan nan nan nan nan nan nan nan nan 249 241 nan 245 245 248 250 256 259 262 264 265 268 269 271 274 275 275 277 278 278 277 277 278 277 278 282 284 282 280 282 281 280 280 281 280 277 275 273 274 276 280 282 nan
nan nan nan nan nan nan nan nan nan nan nan nan nan nan nan nan nan nan nan nan nan nan nan nan nan nan nan nan nan nan nan nan nan nan nan nan nan nan nan nan nan nan 252 nan nan 247 247 247 248 254 255 260 264 267 265 269 272 273 273 275 276 274 275 276 275 276 280 285 286 285 284 284 287 286 281 280 283 284 281 276 271 273 273 276 nan nan
nan nan nan nan nan nan nan nan nan nan nan nan nan nan nan nan nan nan nan nan nan nan nan nan nan nan nan nan nan nan nan nan nan nan nan nan nan nan nan nan nan nan nan nan nan nan nan 250 249 251 257 260 260 260 263 264 263 265 271 274 276 277 278 275 275 276 280 285 288 286 285 284 284 286 284 282 284 286 284 279 271 271 273 273 nan nan
nan nan nan nan nan nan nan nan nan nan nan nan nan nan nan nan nan nan nan nan nan nan nan nan nan nan nan nan nan nan nan nan nan nan nan nan nan nan nan nan nan nan nan nan nan nan nan nan nan nan nan 258 261 261 261 261 262 264 265 265 267 272 269 271 274 276 278 280 281 283 284 284 284 285 284 281 283 284 283 277 271 270 271 270 nan nan
nan nan nan nan nan nan nan nan nan nan nan nan nan nan nan nan nan nan nan nan nan nan nan nan nan nan nan nan nan nan nan nan nan nan nan nan nan nan nan nan nan nan nan nan nan nan nan nan nan nan nan nan 260 261 257 259 260 264 264 267 265 266 267 269 272 276 278 279 277 275 274 nan nan nan nan 284 282 280 279 275 270 270 271 271 nan nan
nan nan nan nan nan nan nan nan nan nan nan nan nan nan nan nan nan nan nan nan nan nan nan nan nan nan nan nan nan nan nan nan nan nan nan nan 265 265 nan nan nan nan nan nan nan nan nan nan nan nan nan nan nan 260 265 266 266 261 268 268 265 265 265 264 268 276 282 283 280 273 271 nan 278 nan nan 269 277 278 276 274 273 272 271 271 269 nan
nan nan nan nan nan nan nan nan nan nan nan nan nan nan nan nan nan nan nan nan nan nan nan nan nan nan nan nan nan nan nan nan nan nan nan nan nan nan nan nan nan nan nan nan nan nan nan nan nan nan nan nan nan nan 252 256 262 269 264 264 268 264 266 266 267 273 279 283 286 286 282 281 nan 276 275 nan nan nan 275 275 273 272 270 268 267 nan
nan nan nan nan nan nan nan nan nan nan nan nan nan nan nan nan nan nan nan nan nan nan nan nan nan nan nan nan nan nan nan nan nan nan nan nan nan nan nan nan nan nan nan nan nan nan nan nan nan nan nan nan nan nan nan nan nan 260 267 269 266 266 266 268 269 271 274 280 284 288 289 nan nan nan 276 273 273 281 286 282 275 269 271 269 268 nan
nan nan nan nan nan nan nan nan nan nan nan nan nan nan nan nan nan nan nan nan nan nan nan nan nan nan nan nan nan nan nan nan nan nan nan nan nan nan nan nan nan nan nan nan nan nan nan nan nan nan nan nan nan nan nan nan nan nan 259 263 266 268 269 272 274 271 273 275 278 282 285 286 291 nan nan 283 281 281 278 268 nan 266 266 nan 269 267
nan nan nan nan nan nan nan nan nan nan nan nan nan nan nan nan nan nan nan nan nan nan nan nan nan nan nan nan nan nan nan nan nan nan nan nan nan nan nan nan nan nan nan nan nan nan nan nan nan nan nan nan nan nan nan nan nan nan nan 261 264 268 270 270 271 275 277 277 278 281 284 286 292 nan nan nan nan nan 281 275 270 264 nan nan nan nan
nan nan nan nan nan nan nan nan nan nan nan nan nan nan nan nan nan nan nan nan nan nan nan nan nan nan nan nan nan nan nan nan nan nan nan nan nan nan nan nan nan nan nan nan nan nan nan nan nan nan nan nan nan nan nan nan nan nan nan 265 265 268 273 275 275 275 nan 280 280 281 285 289 288 288 nan nan nan nan nan 279 274 270 263 nan 264 nan
nan nan nan nan nan nan nan nan nan nan nan nan nan nan nan nan nan nan nan nan nan nan nan nan nan nan nan nan nan nan nan nan nan nan nan nan nan nan nan nan nan nan nan nan nan nan nan nan nan nan nan nan nan nan nan nan nan nan 258 nan nan 267 272 275 277 279 280 282 285 nan nan 289 291 291 nan nan nan nan nan nan 292 289 281 272 nan nan
nan nan nan nan nan nan nan nan nan nan nan nan nan nan nan nan nan nan nan nan nan nan nan nan nan nan nan nan nan nan nan nan nan nan nan nan nan nan nan nan nan nan nan nan nan nan nan nan nan nan nan nan nan nan nan nan nan nan nan 256 255 254 263 272 275 278 280 283 286 288 291 290 291 290 nan nan nan nan nan nan 297 293 nan 289 276 nan
nan nan nan nan nan nan nan nan nan nan nan nan nan nan nan nan nan nan nan nan nan nan nan nan nan nan nan nan nan nan nan nan nan nan nan nan nan nan nan nan nan nan nan nan nan nan nan nan nan nan nan nan nan nan nan nan nan 252 nan nan nan 255 nan 253 266 273 278 282 284 289 292 291 290 291 292 nan nan nan nan nan nan nan 292 287 282 nan
nan nan nan nan nan nan nan nan nan nan nan nan nan nan nan nan nan nan nan nan nan nan nan nan nan nan nan nan nan nan nan nan nan nan nan nan nan nan nan nan nan nan nan nan nan nan nan nan nan nan nan nan nan nan nan nan nan nan nan nan nan 258 257 251 245 253 261 271 285 288 290 290 290 289 289 nan nan nan nan nan nan nan nan nan nan nan
nan nan nan nan nan nan nan nan nan nan nan nan nan nan nan nan nan nan nan nan nan nan nan nan nan nan nan nan nan nan nan nan nan nan nan nan nan nan nan nan nan nan nan nan nan nan nan nan nan nan nan nan nan nan nan nan nan nan 253 nan nan 252 257 257 nan nan nan nan 255 276 289 290 289 290 289 289 289 nan nan nan nan nan nan nan nan nan
nan nan nan nan nan nan nan nan nan nan nan nan nan nan nan nan nan nan nan nan nan nan nan nan nan nan nan nan nan nan nan nan nan nan nan nan nan nan nan nan nan nan nan nan nan nan nan nan nan nan nan nan nan nan nan nan nan 255 256 nan 257 nan 255 259 256 256 nan nan nan nan 266 287 289 291 290 287 287 287 287 nan nan nan nan nan nan nan
nan nan nan nan nan nan nan nan nan nan nan nan nan nan nan nan nan nan nan nan nan nan nan nan nan nan nan nan nan nan nan nan nan nan nan nan nan nan nan nan nan nan nan nan nan nan nan nan nan nan nan nan nan nan nan nan nan nan nan 255 nan 259 nan 254 252 251 252 259 257 264 nan 253 270 269 274 280 282 284 283 282 277 nan nan nan nan nan
nan nan nan nan nan nan nan nan nan nan nan nan nan nan nan nan nan nan nan nan nan nan nan nan nan nan nan nan nan nan nan nan nan nan nan nan nan nan nan nan nan nan nan nan nan nan nan nan nan nan nan nan nan nan nan nan nan nan nan nan nan 257 nan nan 253 nan nan 247 251 253 263 nan nan 278 278 282 285 290 291 287 284 281 278 nan nan nan
nan nan nan nan nan nan nan nan nan nan nan nan nan nan nan nan nan nan nan nan nan nan nan nan nan nan nan nan nan nan nan nan nan nan nan nan nan nan nan nan nan nan nan nan nan nan nan nan nan nan nan nan nan nan nan nan nan nan nan nan nan nan nan nan 253 250 249 nan nan 256 263 263 nan nan 289 297 298 299 296 293 291 289 nan nan nan nan
nan nan nan nan nan nan nan nan nan nan nan nan nan nan nan nan nan nan nan nan nan nan nan nan nan nan nan nan nan nan nan nan nan nan nan nan nan nan nan nan nan nan nan nan nan nan nan nan nan nan nan nan nan nan nan nan nan nan nan nan nan nan nan nan nan nan 248 251 252 253 255 260 260 nan 274 303 308 296 289 289 286 287 nan nan nan nan
nan nan nan nan nan nan nan nan nan nan nan nan nan nan nan nan nan nan nan nan nan nan nan nan nan nan nan nan nan nan nan nan nan nan nan nan nan nan nan nan nan nan nan nan nan nan nan nan nan nan nan nan nan nan nan nan nan nan nan nan nan nan nan nan nan nan nan nan nan 250 253 257 nan 269 nan nan nan 291 292 286 285 284 nan nan nan nan
nan nan nan nan nan nan nan nan nan nan nan nan nan nan nan nan nan nan nan nan nan nan nan nan nan nan nan nan nan nan nan nan nan nan nan nan nan nan nan nan nan nan nan nan nan nan nan nan nan nan nan nan nan nan nan nan nan nan nan nan nan nan nan nan nan nan nan nan nan 247 258 258 260 nan 265 nan nan nan 297 286 283 285 nan nan nan nan
nan nan nan nan nan nan nan nan nan nan nan nan nan nan nan nan nan nan nan nan nan nan nan nan nan nan nan nan nan nan nan nan nan nan nan nan nan nan nan nan nan nan nan nan nan nan nan nan nan nan nan nan nan nan nan nan nan nan nan nan nan nan nan nan nan nan nan nan nan nan nan 250 263 267 268 265 nan nan 294 290 288 286 284 nan nan nan
nan nan nan nan nan nan nan nan nan nan nan nan nan nan nan nan nan nan nan nan nan nan nan nan nan nan nan nan nan nan nan nan nan nan nan nan nan nan nan nan nan nan nan nan nan nan nan nan nan nan nan nan nan nan nan nan nan nan nan nan nan nan nan nan nan nan nan nan nan nan nan nan nan 269 273 nan nan nan 285 291 293 289 286 284 284 nan
nan nan nan nan nan nan nan nan nan nan nan nan nan nan nan nan nan nan nan nan nan nan nan nan nan nan nan nan nan nan nan nan nan nan nan nan nan nan nan nan nan nan nan nan nan nan nan nan nan nan nan nan nan nan nan nan nan nan nan nan nan nan nan nan nan nan nan nan nan nan nan nan nan nan 265 268 273 nan nan 273 285 293 290 290 288 285
nan nan nan nan nan nan nan nan nan nan nan nan nan nan nan nan nan nan nan nan nan nan nan nan nan nan nan nan nan nan nan nan nan nan nan nan nan nan nan nan nan nan nan nan nan nan nan nan nan nan nan nan nan nan nan nan nan nan nan nan nan nan nan nan nan nan nan nan nan nan nan nan nan nan nan nan 265 273 272 270 nan nan 290 289 289 286
nan nan nan nan nan nan nan nan nan nan nan nan nan nan nan nan nan nan nan nan nan nan nan nan nan nan nan nan nan nan nan nan nan nan nan nan nan nan nan nan nan nan nan nan nan nan nan nan nan nan nan nan nan nan nan nan nan nan nan nan nan nan nan nan nan nan nan nan nan nan nan nan nan nan nan nan 264 267 273 nan nan nan 276 nan nan nan
nan nan nan nan nan nan nan nan nan nan nan nan nan nan nan nan nan nan nan nan nan nan nan nan nan nan nan nan nan nan nan nan nan nan nan nan nan nan nan nan nan nan nan nan nan nan nan nan nan nan nan nan nan nan nan nan nan nan nan nan nan nan nan nan nan nan nan nan nan nan nan nan nan nan nan nan nan 275 278 281 282 nan nan nan nan nan
nan nan nan nan nan nan nan nan nan nan nan nan nan nan nan nan nan nan nan nan nan nan nan nan nan nan nan nan nan nan nan nan nan nan nan nan nan nan nan nan nan nan nan nan nan nan nan nan nan nan nan nan nan nan nan nan nan nan nan nan nan nan nan nan nan nan nan nan nan nan nan nan nan nan nan nan nan nan nan 276 282 282 nan nan nan nan
nan nan nan nan nan nan nan nan nan nan nan nan nan nan nan nan nan nan nan nan nan nan nan nan nan nan nan nan nan nan nan nan nan nan nan nan nan nan nan nan nan nan nan nan nan nan nan nan nan nan nan nan nan nan nan nan nan nan nan nan nan nan nan nan nan nan nan nan nan nan nan nan nan nan nan nan nan nan nan nan 277 283 284 nan nan 281
nan nan nan nan nan nan nan nan nan nan nan nan nan nan nan nan nan nan nan nan nan nan nan nan nan nan nan nan nan nan nan nan nan nan nan nan nan nan nan nan nan nan nan nan nan nan nan nan nan nan nan nan nan nan nan nan nan nan nan nan nan nan nan nan nan nan nan nan nan nan nan nan nan nan nan nan nan nan nan nan 272 274 277 281 281 nan
nan nan nan nan nan nan nan nan nan nan nan nan nan nan nan nan nan nan nan nan nan nan nan nan nan nan nan nan nan nan nan nan nan nan nan nan nan nan nan nan nan nan nan nan nan nan nan nan nan nan nan nan nan nan nan nan nan nan nan nan nan nan nan nan nan nan nan nan nan nan nan nan nan nan nan nan nan nan nan nan nan nan nan 269 285 nan
nan nan nan nan nan nan nan nan nan nan nan nan nan nan nan nan nan nan nan nan nan nan nan nan nan nan nan nan nan nan nan nan nan nan nan nan nan nan nan nan nan nan nan nan nan nan nan nan nan nan nan nan nan nan nan nan nan nan nan nan nan nan nan nan nan nan nan nan nan nan nan nan nan nan nan nan nan nan nan nan nan nan nan nan nan nan